sat.trackr.live / text

‹ back to catalog

STARLINK-36812

NORAD 67968 · 2026-038H

PAYLOAD ACTIVE UNKNOWN

§ Identity

Operator
Country
US
Launch date
2026-02-25
Launch site
AFWTR
Launch vehicle
Mass (kg)
RCS (m²)

Purposes: comms

External: N2YO · Heavens-Above · Gunter

§ Orbital elements

Epoch: 2026-05-25T00:10:51.693600Z

Period
93.91 min
Inclination
97.2852°
Eccentricity
0.0001405
Mean motion
15.33445332 rev/d
Perigee alt
464.6 km
Apogee alt
466.5 km
Semi-major
6,843.7 km
B*
1.9447e-4
RAAN
155.0164°
Arg perigee
98.3811°
Mean anomaly
261.7591°
Rev number
1,493

§ Raw data

STARLINK-368121 67968U 26038H   26145.00754275  .00006208  00000+0  19447-3 0  99962 67968  97.2852 155.0164 0001405  98.3811 261.7591 15.33445332 14934

JSON: /api/v1/satellites/67968 · /tle

For live sub-satellite position, see the globe view (requires WebGL).

§ Visibility from observer

Set your observer location to see the next 7 days of passes ≥ 10°. The values pass through the URL so the page stays shareable.

No JS? Fill the form by hand. The geolocation button needs JavaScript.